Location: Table Mountain
(47.2500°N, 120.5778°W)
Time: 02:12:33
(UTC-08:00)

Envisat - Pass Details

Date: 13 October 2017
Orbit: 764 x 766 km, 98.2° (Epoch: 11 December)

Event Time Altitude Azimuth Distance (km) Brightness Sun altitude
Exits shadow 19:37:13 21° 94° (E) 1,652 4.1 -14.3°
Maximum altitude 19:39:00 26° 63° (ENE) 1,468 4.0 -14.6°
Drops below altitude 10° 19:43:10 10° 8° (N) 2,313 5.5 -15.3°
Sets 19:45:47 0° 356° (N) 3,244 6.4 -15.7°
